This is the latest recevied weather packets stored in our database for station/object IU1OLT-6. If no packets are shown the sender has not sent any weather packets the latest 10 day(s).
| Time | Temp. | Humidity | Pressure | Rain* | Wind** | Luminosity | Snow |
|---|---|---|---|---|---|---|---|
| 1788159781 | 64° F | 43% | 759.5 mmHg | 0 in | - | - | - |
| 1788158821 | 63° F | 55% | 759.4 mmHg | 0 in | - | - | - |
| 1788157861 | 61° F | 58% | 759.4 mmHg | 0 in | - | - | - |
| 1788155989 | 59° F | 77% | 759.4 mmHg | 0 in | - | - | - |
| 1788155077 | 59° F | 74% | 759.3 mmHg | 0 in | - | - | - |
| 1788154117 | 58° F | 80% | 759.3 mmHg | 0 in | - | - | - |
| 1788153157 | 58° F | 77% | 759.2 mmHg | 0 in | - | - | - |
| 1788152197 | 60° F | 68% | 759.1 mmHg | 0 in | - | - | - |
| 1788151285 | 61° F | 48% | 759.1 mmHg | 0 in | - | - | - |
| 1788149413 | 60° F | 39% | 759.2 mmHg | 0 in | - | - | - |
| 1788148454 | 60° F | 39% | 759.2 mmHg | 0 in | - | - | - |
| 1788147493 | 59° F | 44% | 759.2 mmHg | 0 in | - | - | - |
| 1788146533 | 59° F | 59% | 759.4 mmHg | 0 in | - | - | - |
| 1788145574 | 59° F | 44% | 759.4 mmHg | 0 in | - | - | - |
| 1788144613 | 60° F | 40% | 759.3 mmHg | 0 in | - | - | - |
| 1788143654 | 59° F | 41% | 759.4 mmHg | 0 in | - | - | - |
| 1788142741 | 60° F | 42% | 759.4 mmHg | 0 in | - | - | - |
| 1788141733 | 60° F | 41% | 759.5 mmHg | 0 in | - | - | - |
| 1788140774 | 60° F | 49% | 759.7 mmHg | 0 in | - | - | - |
| 1788139861 | 59° F | 51% | 759.7 mmHg | 0 in | - | - | - |
| 1788138950 | 58° F | 62% | 759.7 mmHg | 0 in | - | - | - |
| 1788137990 | 58° F | 71% | 759.7 mmHg | 0 in | - | - | - |
| 1788137077 | 58° F | 68% | 759.8 mmHg | 0 in | - | - | - |
| 1788136166 | 59° F | 68% | 759.8 mmHg | 0 in | - | - | - |
| 1788135206 | 59° F | 58% | 759.9 mmHg | 0 in | - | - | - |
* Rain latest hour (hover to see other rain measurements)
** Current wind speed in m/s (hover to see current wind gust speed)